When you browse on this site, cookies collect data to enhance your experience and personalize the content and advertising you see.
Visit our Privacy Policy to learn more. By continuing to use the site, you agree to this use of cookies and data.
  • En España
  • Lista de países
  • Para 7 días
  • Temperatura del agua
  • Mapa Satelital
  • El tiempo en el mapa
  • Informadores
  • user-avatar
    Iniciar sesión

    Tiempo cada hora Vanadzor

    Hoy, 21 Noviembre, Miércoles

    Tiempo Temperatura Precipitaciones Viento Presión Humedad
    00:00 +3°C° 0 mm 2 mps 634 mmHg 74%
    01:00 +3°C° 0 mm 2 mps 634 mmHg 74%
    02:00 +3°C° 0 mm 2 mps 634 mmHg 74%
    03:00 +3°C° 0 mm 3 mps 634 mmHg 72%
    04:00 +3°C° 0 mm 3 mps 633 mmHg 74%
    05:00 +2°C° 0 mm 3 mps 633 mmHg 76%
    06:00 +3°C° 0 mm 2 mps 633 mmHg 78%
    07:00 +3°C° 0 mm 3 mps 633 mmHg 74%
    08:00 +4°C° 0 mm 3 mps 633 mmHg 71%
    09:00 +5°C° 0 mm 3 mps 633 mmHg 67%
    10:00 +7°C° 0 mm 3 mps 633 mmHg 63%
    11:00 +8°C° 0 mm 3 mps 633 mmHg 60%
    12:00 +8°C° 0 mm 4 mps 633 mmHg 57%
    13:00 +8°C° 0.1 mm 3 mps 633 mmHg 58%
    14:00 +8°C° 0.1 mm 3 mps 632 mmHg 59%
    15:00 +8°C° 0.1 mm 3 mps 632 mmHg 60%
    16:00 +7°C° 0.1 mm 2 mps 632 mmHg 65%
    17:00 +6°C° 0.1 mm 2 mps 632 mmHg 69%
    18:00 +6°C° 0.1 mm 1 mps 632 mmHg 74%
    19:00 +6°C° 0.1 mm 1 mps 632 mmHg 75%
    20:00 +6°C° 0.1 mm 1 mps 632 mmHg 76%
    21:00 +5°C° 0.1 mm 1 mps 632 mmHg 77%
    22:00 +5°C° 0.2 mm 1 mps 632 mmHg 79%
    23:00 +5°C° 0.2 mm 1 mps 632 mmHg 80%

    Mañana, 22 Noviembre, Jueves

    Tiempo Temperatura Precipitaciones Viento Presión Humedad
    00:00 +4°C° 0.2 mm 1 mps 631 mmHg 82%
    01:00 +4°C° 0.2 mm 1 mps 631 mmHg 83%
    02:00 +4°C° 0.2 mm 1 mps 631 mmHg 83%
    03:00 +4°C° 0.2 mm 1 mps 631 mmHg 84%
    04:00 +4°C° 0.3 mm 1 mps 631 mmHg 85%
    05:00 +3°C° 0.3 mm 2 mps 631 mmHg 86%
    06:00 +3°C° 0.3 mm 2 mps 631 mmHg 86%
    07:00 +3°C° 0.4 mm 2 mps 631 mmHg 85%
    08:00 +4°C° 0.4 mm 2 mps 631 mmHg 84%
    09:00 +4°C° 0.4 mm 2 mps 631 mmHg 82%
    10:00 +5°C° 0.3 mm 2 mps 631 mmHg 80%
    11:00 +5°C° 0.3 mm 2 mps 631 mmHg 77%
    12:00 +5°C° 0.3 mm 3 mps 631 mmHg 75%
    13:00 +6°C° 0.2 mm 2 mps 631 mmHg 75%
    14:00 +6°C° 0.2 mm 2 mps 630 mmHg 75%
    15:00 +6°C° 0.2 mm 2 mps 630 mmHg 75%
    16:00 +5°C° 0.2 mm 2 mps 630 mmHg 78%
    17:00 +5°C° 0.2 mm 2 mps 630 mmHg 82%
    18:00 +5°C° 0.2 mm 1 mps 630 mmHg 85%
    19:00 +5°C° 0.4 mm 1 mps 631 mmHg 85%
    20:00 +5°C° 0.4 mm 1 mps 631 mmHg 86%
    21:00 +5°C° 0.4 mm 1 mps 631 mmHg 86%
    22:00 +5°C° 0.3 mm 1 mps 631 mmHg 86%
    23:00 +5°C° 0.3 mm 1 mps 631 mmHg 86%

    Pasado mañana, 23 Noviembre, Viernes

    Tiempo Temperatura Precipitaciones Viento Presión Humedad
    00:00 +5°C° 0.3 mm 1 mps 631 mmHg 87%
    01:00 +5°C° 0.2 mm 1 mps 631 mmHg 87%
    02:00 +4°C° 0.2 mm 1 mps 631 mmHg 87%
    03:00 +4°C° 0.2 mm 1 mps 631 mmHg 87%
    04:00 +4°C° 0.2 mm 1 mps 631 mmHg 87%
    05:00 +4°C° 0.2 mm 1 mps 631 mmHg 87%
    06:00 +4°C° 0.2 mm 1 mps 632 mmHg 87%
    07:00 +5°C° 0.2 mm 1 mps 632 mmHg 84%
    08:00 +5°C° 0.2 mm 1 mps 633 mmHg 81%
    09:00 +6°C° 0.2 mm 1 mps 633 mmHg 79%
    10:00 +6°C° 0.1 mm 2 mps 633 mmHg 76%
    11:00 +6°C° 0.1 mm 2 mps 633 mmHg 73%
    12:00 +7°C° 0.1 mm 2 mps 634 mmHg 70%
    13:00 +7°C° 0.1 mm 2 mps 634 mmHg 70%
    14:00 +7°C° 0.1 mm 2 mps 634 mmHg 70%
    15:00 +7°C° 0.1 mm 2 mps 633 mmHg 70%
    16:00 +7°C° 0.1 mm 1 mps 634 mmHg 75%
    17:00 +6°C° 0.1 mm 1 mps 634 mmHg 79%
    18:00 +5°C° 0.1 mm 1 mps 634 mmHg 83%
    19:00 +5°C° 0.1 mm 1 mps 635 mmHg 84%
    20:00 +4°C° 0.1 mm 1 mps 635 mmHg 85%
    21:00 +4°C° 0.1 mm 1 mps 635 mmHg 86%
    22:00 +3°C° 0 mm 1 mps 636 mmHg 88%
    23:00 +3°C° 0 mm 1 mps 636 mmHg 89%

    24 Noviembre, Sábado

    Tiempo Temperatura Precipitaciones Viento Presión Humedad
    00:00 +3°C° 0 mm 1 mps 636 mmHg 90%
    01:00 +3°C° 0 mm 1 mps 637 mmHg 90%
    02:00 +3°C° 0 mm 1 mps 637 mmHg 91%
    03:00 +3°C° 0 mm 1 mps 637 mmHg 91%
    04:00 +2°C° 0 mm 1 mps 637 mmHg 92%
    05:00 +2°C° 0 mm 1 mps 637 mmHg 92%
    06:00 +2°C° 0 mm 1 mps 638 mmHg 93%
    07:00 +1°C° 0 mm 2 mps 638 mmHg 90%
    08:00 +1°C° 0 mm 2 mps 639 mmHg 87%
    09:00 +2°C° 0 mm 2 mps 639 mmHg 84%
    10:00 +2°C° 0 mm 2 mps 639 mmHg 82%
    11:00 +3°C° 0 mm 2 mps 639 mmHg 80%
    12:00 +3°C° 0 mm 2 mps 639 mmHg 77%
    13:00 +3°C° 0.1 mm 2 mps 639 mmHg 80%
    14:00 +2°C° 0.1 mm 3 mps 639 mmHg 82%
    15:00 +1°C° 0.1 mm 3 mps 639 mmHg 84%
    16:00 +2°C° 0.1 mm 2 mps 639 mmHg 86%
    17:00 +1°C° 0.1 mm 2 mps 639 mmHg 88%
    18:00 +1°C° 0.1 mm 2 mps 640 mmHg 91%
    19:00 +1°C° 0.1 mm 2 mps 640 mmHg 91%
    20:00 -1°C° 0.1 mm 2 mps 640 mmHg 92%
    21:00 -1°C° 0.1 mm 2 mps 640 mmHg 93%
    22:00 -1°C° 0.1 mm 2 mps 640 mmHg 92%
    23:00 +1°C° 0.1 mm 1 mps 640 mmHg 92%

    25 Noviembre, Domingo

    Tiempo Temperatura Precipitaciones Viento Presión Humedad
    00:00 +1°C° 0.1 mm 1 mps 640 mmHg 92%
    01:00 +1°C° 0 mm 1 mps 639 mmHg 92%
    02:00 +1°C° 0 mm 1 mps 639 mmHg 92%
    03:00 +1°C° 0 mm 1 mps 638 mmHg 92%
    04:00 +1°C° 0 mm 1 mps 638 mmHg 91%
    05:00 +1°C° 0 mm 1 mps 637 mmHg 90%
    06:00 +1°C° 0 mm 1 mps 637 mmHg 89%
    07:00 +1°C° 0 mm 1 mps 637 mmHg 85%
    08:00 +2°C° 0 mm 1 mps 637 mmHg 80%
    09:00 +3°C° 0 mm 1 mps 637 mmHg 76%
    10:00 +4°C° 0 mm 1 mps 636 mmHg 72%
    11:00 +5°C° 0 mm 1 mps 636 mmHg 68%
    12:00 +6°C° 0 mm 1 mps 635 mmHg 64%
    13:00 +6°C° 0 mm 1 mps 635 mmHg 64%
    14:00 +7°C° 0 mm 1 mps 634 mmHg 63%
    15:00 +7°C° 0 mm 1 mps 634 mmHg 63%
    16:00 +5°C° 0 mm 1 mps 634 mmHg 67%
    17:00 +4°C° 0 mm 1 mps 633 mmHg 72%
    18:00 +3°C° 0 mm 1 mps 633 mmHg 76%
    19:00 +3°C° 0 mm 1 mps 633 mmHg 75%
    20:00 +2°C° 0 mm 1 mps 633 mmHg 74%
    21:00 +2°C° 0 mm 1 mps 633 mmHg 73%
    22:00 +2°C° 0 mm 1 mps 632 mmHg 73%
    23:00 +2°C° 0 mm 1 mps 632 mmHg 72%

    26 Noviembre, Lunes

    Tiempo Temperatura Precipitaciones Viento Presión Humedad
    00:00 +2°C° 0 mm 1 mps 632 mmHg 72%
    01:00 +2°C° 0 mm 1 mps 632 mmHg 72%
    02:00 +2°C° 0 mm 1 mps 632 mmHg 72%
    03:00 +2°C° 0 mm 1 mps 632 mmHg 72%
    04:00 +2°C° 0.1 mm 1 mps 632 mmHg 74%
    05:00 +2°C° 0.1 mm 1 mps 632 mmHg 75%
    06:00 +1°C° 0.1 mm 2 mps 632 mmHg 76%
    07:00 +2°C° 0.1 mm 2 mps 633 mmHg 74%
    08:00 +3°C° 0.1 mm 2 mps 633 mmHg 72%
    09:00 +3°C° 0.1 mm 2 mps 633 mmHg 70%
    10:00 +4°C° 0 mm 2 mps 633 mmHg 67%
    11:00 +5°C° 0 mm 2 mps 633 mmHg 64%
    12:00 +6°C° 0 mm 2 mps 633 mmHg 61%
    13:00 +6°C° 0 mm 2 mps 633 mmHg 61%
    14:00 +6°C° 0 mm 2 mps 633 mmHg 61%
    15:00 +6°C° 0 mm 2 mps 632 mmHg 61%
    16:00 +5°C° 0 mm 2 mps 632 mmHg 65%
    17:00 +3°C° 0 mm 2 mps 633 mmHg 70%
    18:00 +2°C° 0 mm 2 mps 633 mmHg 75%
    19:00 +2°C° 0 mm 2 mps 633 mmHg 75%
    20:00 +2°C° 0 mm 2 mps 633 mmHg 75%
    21:00 +1°C° 0 mm 2 mps 633 mmHg 76%
    22:00 +1°C° 0 mm 2 mps 633 mmHg 76%
    23:00 +1°C° 0 mm 2 mps 633 mmHg 77%
    Mostrar más